CAPE
0 0 0 0 0 0 0 0 0 0 0 0 0 0 0 0 0 0 0 0 0 0 0 0 0 0 0 1 0 0 0 0 0 497 734 780 815 828 885 645 622 408 348 215
0 0 0 0 0 0 0 0 0 0 0 0 0 0 0 0 0 0 0 0 0 0 0 0 0 0 0 0 0 0 0 0 0 467 787 670 786 868 1111 1053 748 708 620 318
0 0 0 0 0 0 0 0 0 0 0 0 0 0 0 0 0 0 0 0 0 0 0 0 0 0 0 0 0 0 0 0 0 337 775 102 111 86 357 454 649 585 624 663
0 0 0 0 0 0 0 0 0 0 0 0 0 0 0 0 0 0 0 0 0 0 0 0 0 0 0 0 0 0 0 0 0 8 450 850 887 915 648 813 559 310 472 664
0 0 0 0 0 0 0 0 0 0 0 0 0 0 0 0 0 0 0 0 0 0 0 0 0 0 0 0 0 0 0 0 0 118 844 921 875 149 2 0 143 50 147 458
0 0 0 0 0 0 0 0 0 0 0 0 0 0 0 0 0 0 0 0 0 0 0 0 0 0 0 0 0 0 0 0 0 230 573 806 763 28 3 18 7 0 96 358
0 0 0 0 0 0 0 0 0 0 0 0 0 0 0 0 0 0 0 0 0 0 0 0 0 0 0 0 0 0 0 0 0 8 196 165 202 62 20 1 3 78 258 407
0 0 0 0 0 0 0 0 0 0 0 0 0 0 0 0 0 0 0 0 0 0 0 0 0 0 0 0 0 0 0 0 0 0 20 28 0 0 0 0 49 151 490 560
0 0 0 0 0 0 0 0 0 0 0 0 0 0 0 0 0 0 0 0 0 0 0 0 0 0 0 0 0 0 0 0 0 0 0 0 0 0 2 35 253 456 614 558
0 0 0 0 0 0 0 0 0 0 3 0 0 0 0 0 0 0 0 0 0 0 0 0 0 0 0 0 0 0 0 0 0 0 0 0 0 4 89 295 499 518 381 579
0 0 0 0 0 0 0 0 0 0 5 4 0 0 0 0 0 1 0 0 0 0 0 0 0 0 0 0 0 0 0 0 0 0 0 0 56 252 373 470 479 439 402 427
0 0 0 0 0 0 0 0 0 0 0 0 32 0 0 0 0 0 0 0 0 0 0 0 0 0 0 0 0 0 0 0 0 0 0 54 285 606 619 560 482 349 454 441
0 0 0 0 0 0 0 0 0 0 0 0 2 0 0 0 0 0 0 0 0 0 0 0 0 0 0 0 0 0 0 93 0 2 80 554 720 787 752 606 465 457 510 553
0 0 0 0 0 0 1 0 6 0 11 0 0 0 0 0 0 0 0 0 0 0 0 0 0 0 0 0 0 0 0 533 401 544 768 1138 1014 951 840 732 659 678 762 765
0 1 0 0 1 1 4 4 2 3 0 21 0 0 0 0 0 0 0 0 0 19 14 0 23 0 0 0 0 0 8 1074 1081 1123 1283 1492 1342 1180 1076 1030 906 922 863 834
0 0 0 3 0 0 0 0 0 0 0 0 0 0 0 0 0 0 0 0 0 80 19 0 0 96 275 54 130 17 376 1537 1450 1326 1319 1296 1107 1105 1107 1009 972 862 375 116
0 0 22 0 0 0 0 0 0 0 12 0 2 0 0 0 0 0 0 0 0 0 0 0 0 0 85 157 93 249 345 1005 1150 1083 1170 1109 1059 810 691 543 340 82 16 0
0 6 20 0 0 0 0 0 0 0 0 0 0 0 3 0 0 0 0 0 0 0 0 0 0 0 17 100 91 33 77 215 974 1022 972 803 631 518 232 126 21 0 0 0
0 1 4 0 0 0 0 0 0 1 0 0 4 6 1 0 0 0 0 0 0 0 0 0 0 0 60 77 51 22 0 0 83 887 757 510 258 171 85 0 0 0 0 0
0 4 2 1 0 0 0 0 0 4 1 6 3 0 5 5 1 0 0 0 0 0 0 0 0 1 181 135 29 11 0 0 3 613 492 87 86 24 0 0 0 0 0 0
0 2 2 1 3 0 0 0 0 3 0 0 0 1 23 10 19 4 0 0 0 0 0 0 5 85 26 40 75 22 5 209 501 395 53 12 0 0 0 0 0 0 0 0
0 0 3 4 1 0 0 0 2 0 11 0 0 0 14 34 14 0 0 1 0 0 0 0 1 54 37 35 46 12 48 136 28 11 10 0 0 0 0 0 2 8 0 0
3 6 5 2 0 0 0 3 0 5 9 0 26 37 36 15 6 3 6 3 0 0 0 0 3 43 17 48 49 2 78 2 1 0 0 0 0 0 0 16 13 1 0 0
0 0 0 6 0 1 1 0 2 4 0 0 17 26 12 11 10 13 4 1 1 0 0 1 6 99 31 0 7 3 0 6 0 0 0 0 0 10 8 15 11 3 0 0
0 0 2 8 0 2 0 0 0 0 0 7 25 3 6 15 13 9 5 3 3 2 1 4 13 98 65 68 0 6 18 5 0 0 0 0 0 3 0 1 2 1 0 0
0 6 10 9 5 27 20 13 0 0 1 28 6 2 11 12 7 3 2 4 3 3 2 11 85 25 3 75 15 18 19 8 3 1 0 0 0 0 0 0 0 1 0 1
CIN
0 0 0 0 0 0 0 0 0 0 0 0 0 0 0 0 0 0 0 0 0 0 0 0 0 0 0 -483 0 0 0 0 0 -415 -416 -379 -396 -434 -513 -621 -673 -720 -798 -806
0 0 0 0 0 0 0 0 0 0 0 0 0 0 0 0 0 0 0 0 0 0 0 0 0 0 0 0 0 0 0 0 0 -408 -349 -314 -308 -375 -468 -573 -638 -628 -660 -716
0 0 0 0 0 0 0 0 0 0 0 0 0 0 0 0 0 0 0 0 0 0 0 0 0 0 0 0 0 0 0 0 0 -461 -405 -677 -706 -757 -627 -640 -645 -709 -615 -572
0 0 0 0 0 0 0 0 0 0 0 0 0 0 0 0 0 0 0 0 0 0 0 0 0 0 0 0 0 0 0 0 0 -426 -244 -310 -226 -232 -425 -360 -479 -627 -582 -516
0 0 0 0 0 0 0 0 0 0 0 0 0 0 0 0 0 0 0 0 0 0 0 0 0 0 0 0 0 0 0 0 0 -449 -305 -347 -296 -547 -511 -59 -600 -645 -634 -548
0 0 0 0 0 0 0 0 0 0 0 0 0 0 0 0 0 0 0 0 0 0 0 0 0 0 0 0 0 0 0 0 0 -540 -485 -358 -349 -689 -479 -779 -604 0 -635 -561
0 0 0 0 0 0 0 0 0 0 0 0 0 0 0 0 0 0 0 0 0 0 0 0 0 0 0 0 0 0 0 0 0 -311 -530 -552 -499 -592 -587 -73 -321 -569 -579 -549
0 0 0 0 0 0 0 0 0 0 0 0 0 0 0 0 0 0 0 0 0 0 0 0 0 0 0 0 0 0 0 0 0 0 -593 -604 -67 0 0 0 -617 -549 -536 -495
0 0 0 0 0 0 0 0 0 0 0 -2 0 0 0 0 0 0 0 0 0 0 0 0 0 0 0 0 0 0 0 0 0 0 0 0 0 0 -116 -714 -553 -512 -491 -451
0 0 0 0 0 0 0 0 0 0 -4 0 0 0 0 0 0 -61 0 0 0 0 0 0 0 0 0 0 0 0 0 0 0 0 0 0 0 -349 -731 -587 -492 -511 -517 -392
0 0 0 0 0 0 0 0 0 0 -25 -5 -2 0 0 0 0 -162 0 0 0 0 0 0 0 0 0 0 0 0 0 0 0 0 0 0 -779 -653 -576 -499 -500 -502 -443 -383
0 0 0 0 0 0 0 0 0 0 0 -17 -17 0 0 0 0 0 0 0 0 0 0 0 0 0 0 0 0 0 0 0 0 0 0 -744 -625 -487 -444 -427 -452 -450 -351 -307
0 0 -1 0 0 0 0 0 0 0 0 0 -2 0 0 0 0 0 0 0 0 0 0 0 0 0 0 0 0 0 0 -627 0 -182 -752 -502 -436 -422 -397 -399 -409 -354 -286 -256
0 0 0 0 0 0 0 0 0 0 0 -1 0 0 0 0 0 0 0 0 0 0 0 0 0 0 0 0 0 0 0 -373 -489 -490 -461 -341 -378 -372 -356 -340 -296 -244 -204 -179
0 0 0 0 -1 0 0 0 0 -1 0 0 0 0 0 0 0 0 0 0 0 -86 -119 -16 -178 -10 0 0 0 0 -93 -208 -251 -294 -285 -257 -289 -283 -252 -189 -171 -151 -145 -121
0 0 0 0 0 0 0 0 0 0 0 0 0 0 0 0 0 0 0 0 0 -9 -37 0 0 -97 -82 -183 -143 -404 -260 -109 -150 -167 -198 -263 -255 -221 -168 -137 -148 -129 -255 -340
0 -2 0 0 0 0 0 0 0 0 -15 0 0 0 0 0 0 0 0 0 0 0 0 0 0 0 -98 -60 -210 -214 -237 -177 -164 -162 -150 -177 -186 -201 -214 -250 -283 -396 -308 0
0 0 0 0 0 0 0 0 0 0 -3 0 -1 0 -1 0 0 0 0 0 0 0 0 0 0 0 -149 -125 -197 -271 -258 -270 -139 -124 -110 -126 -197 -239 -318 -359 -197 0 0 0
0 0 -7 0 0 0 0 0 -12 0 0 0 0 0 0 0 0 0 0 0 0 0 0 0 0 0 -21 -50 -193 -54 0 0 -288 -76 -53 -138 -276 -297 -344 -28 0 0 0 0
0 -8 0 0 0 0 0 0 0 -1 0 -9 -2 0 -1 -1 -1 0 0 0 0 0 0 0 0 -5 -3 -1 -12 -31 0 -26 -13 -4 -49 -208 -276 -327 -199 0 0 0 0 0
0 -2 0 -1 -2 0 0 0 -3 0 0 0 0 -1 0 0 0 -2 0 0 0 0 0 0 -22 -1 -32 -28 -9 -5 -41 -40 -3 -12 -147 -225 0 0 0 0 0 0 0 0
0 0 -5 -9 0 0 0 0 0 0 -18 0 0 0 -2 0 0 0 0 0 0 0 0 0 -28 -5 -16 -62 -1 -22 -11 -21 -31 -131 -251 0 0 0 0 0 -86 -177 0 0
-2 -3 -1 -8 0 0 0 -2 -10 -42 -22 0 0 0 0 0 -1 -1 0 0 0 0 0 0 0 -3 -13 -4 -1 0 -1 -1 -63 0 0 0 0 0 0 -137 -139 -127 0 0
-1 0 0 -1 0 -10 -3 -1 -27 -40 0 0 -4 0 0 0 0 0 0 0 -1 0 0 -1 -45 0 -7 0 -21 -20 0 -197 0 0 0 0 0 -115 -120 -134 -158 -143 0 0
0 0 0 0 -1 -3 0 0 0 0 0 -7 -4 0 0 0 0 0 0 0 0 0 0 0 -40 0 -1 -22 0 -103 -148 -256 0 0 0 0 0 -76 0 0 -84 -86 0 0
0 -14 -2 -1 -3 -2 -7 -15 0 0 -8 0 -2 -2 0 0 0 0 0 0 0 0 0 -134 -16 -73 -39 -71 -132 -161 -165 -212 -99 -105 0 0 0 0 0 0 0 0 0 0
Wind_Speed
3 5 3 6 8 7 4 4 4 5 5 6 7 17 12 7 7 8 8 9 8 10 8 4 8 10 9 8 9 11 12 13 6 2 3 4 5 12 10 9 14 12 10 11
6 2 5 4 3 3 1 1 3 4 6 9 13 22 15 5 6 6 8 8 9 9 12 12 4 7 8 12 12 14 14 16 8 6 5 4 6 6 7 6 7 9 10 9
4 7 4 2 4 3 2 3 3 5 6 5 9 21 8 3 5 8 7 8 8 8 12 15 14 8 7 10 12 15 16 17 15 12 4 2 4 2 2 3 5 9 9 10
4 4 2 4 1 3 3 1 3 6 6 4 4 18 17 13 10 6 8 8 9 11 11 10 13 13 10 12 9 13 14 13 12 14 14 15 14 13 8 9 6 5 8 8
9 3 5 1 3 3 6 2 3 3 5 3 3 4 19 6 12 14 10 6 5 7 9 10 13 12 14 11 11 8 13 14 14 12 16 14 16 7 3 2 5 5 5 7
8 3 5 5 3 1 1 3 5 4 1 3 7 7 16 3 6 8 4 7 8 7 9 11 10 12 10 12 10 9 8 13 13 12 15 18 19 10 6 4 5 5 4 4
1 0 1 2 1 4 5 6 5 5 2 6 4 4 11 16 16 5 5 9 9 7 8 10 12 13 13 13 15 9 8 10 10 13 14 14 14 13 13 10 7 7 4 4
3 5 3 0 4 5 4 8 6 6 4 11 6 8 9 5 7 6 8 10 11 11 7 10 12 11 10 11 12 11 9 11 8 11 14 15 16 11 9 10 7 6 6 5
2 4 6 6 2 4 2 4 5 3 3 1 6 7 9 8 8 6 9 7 10 12 11 10 12 12 11 9 12 12 11 13 13 12 13 12 9 8 9 8 7 5 5 5
4 4 6 2 2 5 6 5 2 2 4 6 6 7 11 8 10 10 11 9 11 11 15 16 11 14 11 8 10 13 10 13 14 13 11 10 12 11 8 8 8 8 7 8
2 4 5 2 5 6 3 2 2 3 3 4 7 8 7 10 9 10 13 11 9 16 16 16 14 14 11 9 10 14 12 9 11 11 9 8 7 8 8 8 8 8 9 9
2 3 4 8 15 7 6 6 5 4 4 5 3 13 8 12 10 6 15 13 13 16 16 13 14 13 14 13 11 13 11 9 10 11 8 8 8 10 9 9 9 9 10 9
4 1 5 7 3 4 3 3 5 4 4 10 5 13 2 6 15 17 16 19 16 10 10 13 14 12 13 13 11 11 10 8 8 8 9 9 10 11 11 10 10 10 11 10
3 4 7 10 11 8 18 19 17 11 6 8 13 22 18 19 16 14 15 15 15 10 19 17 15 13 14 10 9 10 11 5 7 9 11 11 12 12 11 11 12 11 10 11
7 5 8 13 18 19 23 23 20 18 17 14 15 22 19 18 10 8 12 15 15 14 21 20 20 13 11 7 8 8 8 4 6 11 14 14 12 11 12 12 12 12 11 10
1 3 6 18 17 14 16 17 17 18 18 19 20 20 12 5 8 11 14 17 17 11 14 22 21 18 12 7 10 5 1 4 6 5 8 14 14 12 11 13 13 12 9 9
4 2 3 6 5 11 8 4 2 2 4 4 8 13 8 14 14 14 19 20 16 12 12 19 21 20 16 7 5 4 6 7 8 10 9 11 13 13 12 11 12 11 11 10
6 4 3 5 6 4 5 3 3 5 10 14 15 14 9 13 15 14 18 8 14 18 20 18 17 18 19 9 6 4 6 2 7 10 10 11 14 14 13 14 12 10 10 11
10 5 4 3 3 7 9 4 2 2 16 12 6 12 18 17 15 13 8 15 19 18 18 17 17 20 16 14 9 3 5 3 7 8 12 14 16 16 15 14 12 10 11 9
5 4 4 2 4 6 5 2 4 6 12 4 11 15 17 16 15 13 15 19 22 20 16 15 16 17 7 6 8 6 6 6 4 12 14 14 16 15 14 14 12 6 9 9
2 3 10 8 6 8 4 1 4 2 8 11 15 14 19 15 14 19 20 19 21 19 18 16 13 12 7 5 3 6 3 4 14 14 14 15 14 14 13 11 10 10 10 10
4 2 3 3 4 8 2 4 4 4 12 14 14 18 18 15 19 21 20 21 20 19 18 18 14 11 5 4 1 1 6 7 16 17 16 14 13 11 10 13 10 11 11 11
3 5 3 6 7 3 2 10 14 13 10 15 17 15 12 18 19 20 20 19 18 18 16 15 13 9 8 7 0 8 10 13 16 14 14 12 13 12 12 12 11 10 10 10
5 2 4 3 3 10 12 16 9 7 10 15 16 12 18 17 17 18 19 16 16 15 14 13 12 8 11 10 11 12 11 14 16 14 13 11 12 12 11 8 8 9 9 8
7 3 5 7 13 12 14 8 8 12 13 12 10 17 18 16 17 18 18 17 16 17 15 13 13 6 5 4 7 7 13 15 14 13 12 10 10 11 10 7 4 5 5 9
3 6 5 7 12 15 13 10 9 11 13 9 14 16 14 14 16 18 17 15 16 16 13 10 6 6 11 6 7 6 12 16 15 12 9 8 8 8 8 7 6 15 9 9
Wind_Direction
353 73 205 245 213 238 272 286 291 274 327 341 288 302 308 282 288 288 294 304 307 300 301 269 251 245 249 247 215 209 205 229 204 224 196 209 209 211 198 207 213 203 187 193
14 283 215 252 273 208 265 319 319 294 336 339 314 297 302 269 265 264 280 296 298 302 311 314 302 247 228 237 229 223 218 223 211 191 220 242 207 247 219 212 200 199 188 190
163 251 314 295 4 40 353 136 300 291 320 275 318 294 299 310 316 288 273 275 303 285 300 306 311 303 262 228 232 233 229 221 209 196 171 80 37 78 132 191 198 202 185 188
225 265 259 330 282 124 337 3 315 322 356 301 89 291 288 290 277 257 279 281 287 306 315 312 314 312 300 280 232 229 230 226 228 212 208 204 217 220 219 228 215 188 200 202
243 207 306 265 192 168 226 234 273 271 265 275 193 252 284 16 282 272 262 271 316 316 303 308 308 307 299 295 282 232 232 235 217 203 209 204 215 218 145 120 169 188 205 212
252 234 145 210 188 226 7 10 340 31 23 311 227 198 291 289 276 313 347 307 295 285 287 299 295 294 300 310 300 287 226 224 223 197 208 208 212 187 156 149 191 203 199 196
314 226 128 102 34 352 75 54 330 340 4 238 296 320 257 284 307 214 278 286 277 269 276 292 297 304 312 314 311 294 276 251 226 196 202 203 210 199 193 190 195 176 175 180
146 326 173 205 206 213 239 154 162 248 234 281 296 248 254 203 243 250 257 273 287 296 268 263 281 284 285 295 304 308 266 263 223 229 206 209 198 200 200 198 190 190 183 178
72 278 315 315 128 106 249 186 195 189 237 285 231 281 293 217 267 268 251 258 271 284 294 279 277 278 274 277 289 293 296 264 245 211 222 205 192 186 185 183 173 171 150 150
195 272 253 273 360 279 176 180 290 356 276 244 253 253 246 268 267 282 288 283 290 297 302 298 286 280 268 264 278 280 263 267 248 232 214 205 193 181 170 159 169 164 148 141
149 157 278 284 210 210 331 307 121 194 205 238 283 252 218 241 243 254 272 277 282 285 284 287 293 283 271 264 269 270 272 259 241 219 206 186 174 166 158 164 162 161 145 152
180 162 256 251 280 273 200 218 166 192 251 237 231 260 242 263 285 278 270 273 275 271 273 273 280 282 279 269 264 265 271 263 233 213 193 184 158 150 154 161 153 148 151 158
183 346 320 316 11 5 225 219 196 229 210 231 236 267 296 313 305 296 287 278 263 277 290 308 294 284 271 267 261 266 275 258 223 190 165 155 158 156 160 153 148 149 153 148
132 177 191 255 263 279 285 275 263 243 239 259 233 276 270 285 287 304 302 295 269 303 329 312 296 275 260 246 254 272 282 246 195 173 156 163 161 160 157 150 149 150 147 147
137 225 232 258 269 274 275 277 271 260 253 248 267 264 283 284 291 313 338 341 326 324 340 322 316 291 281 306 285 261 276 231 172 164 163 165 150 144 140 142 144 139 142 151
178 264 314 289 275 262 268 264 256 255 262 264 262 268 268 322 321 335 330 315 311 334 325 313 313 318 307 310 321 245 189 143 132 129 164 144 142 133 139 141 135 138 131 130
180 262 259 258 327 313 277 254 272 319 261 297 282 276 338 323 327 328 316 301 302 325 311 298 305 308 315 298 357 265 194 130 129 130 143 138 140 139 143 135 133 131 129 121
197 194 238 275 357 267 246 208 227 271 287 287 261 285 319 308 309 307 295 300 314 313 305 304 301 296 315 298 304 8 271 124 133 130 140 151 139 133 137 131 122 124 127 129
186 161 257 246 226 290 285 204 208 29 296 288 335 329 309 309 303 297 295 313 303 297 292 291 293 293 297 293 318 254 274 315 61 137 156 156 141 132 126 122 131 129 117 114
155 208 233 281 255 254 247 161 85 322 280 130 319 310 307 306 297 300 314 301 296 294 287 278 276 286 262 264 235 201 178 203 153 183 163 147 130 129 133 126 126 113 117 112
237 239 253 259 259 271 245 92 57 270 297 319 329 317 303 292 282 302 297 291 285 289 297 289 278 288 291 345 241 160 44 203 179 163 143 129 123 121 125 112 116 117 111 105
210 176 254 227 254 280 171 8 228 259 310 307 301 303 288 289 295 293 294 292 295 300 304 305 302 296 299 277 280 340 225 188 156 143 128 122 127 122 115 114 117 115 114 111
287 198 239 204 233 245 183 271 277 283 282 291 299 296 301 299 291 291 293 291 297 294 295 301 296 325 329 312 178 274 249 172 127 119 114 116 116 117 120 121 118 115 118 130
282 195 241 328 259 303 299 284 264 272 291 290 298 302 307 295 292 296 296 298 294 297 295 292 296 273 291 278 265 178 144 134 116 113 111 112 112 117 116 115 123 125 131 137
251 270 253 249 271 298 273 271 283 293 292 286 305 311 302 300 303 301 299 297 295 291 289 286 282 273 281 57 112 141 130 112 110 107 110 109 109 109 95 64 75 133 138 160
207 222 258 289 314 290 284 274 286 297 305 319 317 313 313 309 301 299 293 297 289 282 276 269 278 340 9 14 111 111 125 124 120 113 122 121 114 110 116 122 92 44 47 97